Regional Weather Roundup
Issued by NWS Sterling, VA

Home | Current Version | Previous Version | Graphics & Text | Print | Product List | Glossary On
Versions: 1 2 3 4 5 6 7 8 9 10 11 12 13 14 15 16 17 18 19 20 21 22 23 24 25 26 27 28 29 30 31 32 33 34 35 36 37 38 39 40 41 42 43 44 45 46 47 48 49 50
000
ASUS41 KLWX 201110
RWRLWX

REGIONAL WEATHER ROUNDUP
NATIONAL WEATHER SERVICE BALTIMORE MD/WASHINGTON DC
600 AM EST SAT DEC 20 2014

Note: "FAIR" indicates few or no clouds below 12,000 feet
with no significant weather and/or obstructions to visibility.
 TC=TEMPERATURE CELSIUS

 * =Non NWS site. Station does not report precipitation (e.g. rain,
    snow, etc.), thunder, or fog.

DCZ001-MDZ009-015-VAZ040>042-051-053>054-201200-
WASHINGTON METRO

CITY           SKY/WX    TMP DP  RH WIND       PRES   REMARKS
WASHINGTON NAT PTCLDY    32  19  58 NW6       30.29R
DULLES         PTCLDY    20  17  88 CALM      30.28R
ANDREWS AFB    CLEAR     23  18  81 NW6       30.27R
FT BELVOIR     CLEAR     21  19  91 NW2       30.30R
QUANTICO       CLEAR     24  20  84 NW6       30.31R
COLLEGE PARK*  CLEAR     25  23  93 CALM      30.28R
LEESBURG*      CLEAR     25  23  93 NW7       30.29R
MANASSAS*      CLEAR     19  18  93 CALM      30.30R
GAITHERSBURG*  CLEAR     21  16  79 CALM      30.30R

$$

MDZ006>007-011-014-201200-
BALTIMORE METRO

CITY           SKY/WX    TMP DP  RH WIND       PRES   REMARKS
BWI AIRPORT    PTCLDY    25  19  78 CALM      30.26R
MD SCIENCE CTR   N/A     31  19  61 MISG      30.26S
MARTIN STATE   PTCLDY    27  21  80 CALM      30.28R
ANNAPOLIS      CLEAR     31  23  72 NW6       30.27R
FORT MEADE*    CLEAR     21  19  93 CALM      30.29R

$$

MDZ012-015-019>023-201200-
MARYLAND EASTERN SHORE

CITY           SKY/WX    TMP DP  RH WIND       PRES   REMARKS
OCEAN CITY     CLEAR     25  21  85 NW3       30.26R
SALISBURY      CLEAR     26  21  81 CALM      30.25S
BAY BRIDGE AP*   N/A     32  23  69 NW6       30.27R
CAMBRIDGE*     CLEAR     28  23  80 CALM      30.25S
EASTON*        CLEAR     30  27  86 CALM      30.29S

$$

MDZ017>025-201200-
SOUTHERN MARYLAND

CITY           SKY/WX    TMP DP  RH WIND       PRES   REMARKS
PATUXENT RIVER CLEAR     30  21  69 NW8       30.26S WCI  22
ST INIGOES     CLEAR     28  19  69 CALM      30.26S
LEONARDTOWN*     N/A     25  21  86 MISG        N/A

$$

MDZ003>005-201200-
NORTH CENTRAL MARYLAND

CITY           SKY/WX    TMP DP  RH WIND       PRES   REMARKS
FREDERICK*     NOT AVBL
HAGERSTOWN APT CLEAR     24  16  71 CALM      30.25R
WESTMINSTER*   PTCLDY    25  19  80 CALM      30.23R

$$

MDZ501>502-201200-
WESTERN MARYLAND

CITY           SKY/WX    TMP DP  RH WIND       PRES   REMARKS
OAKLAND*       CLOUDY    19 N/A N/A CALM      30.13F
CUMBERLAND*    PTCLDY    27  21  80 CALM      30.32R

$$

VAZ025>031-201200-
SHENANDOAH VALLEY

CITY           SKY/WX    TMP DP  RH WIND       PRES   REMARKS
WINCHESTER*    CLEAR     25  18  74 CALM      30.26R
FRONT ROYAL*   FAIR      21  19  93 CALM      30.25S
LURAY*         FAIR      23  23 100 CALM      30.26S
NEW MARKET*    FAIR      19  17  91 CALM      30.25S
STAUNTON*      CLOUDY    22  19  88 CALM      30.25S
WAYNESBORO*    FAIR      22  19  90 CALM      30.22R

$$

WVZ021-048>050-054>055-201200-
EASTERN WEST VIRGINIA PANHANDLE

CITY           SKY/WX    TMP DP  RH WIND       PRES   REMARKS
MARTINSBURG    CLEAR     19  15  84 CALM      30.28R
PETERSBURG*    MOCLDY    22  20  96 N3        30.27R

$$

VAZ036>039-050-201200-
CENTRAL FOOTHILLS

CITY           SKY/WX    TMP DP  RH WIND       PRES   REMARKS
CHARLOTTESVILL PTCLDY    26  21  81 S3        30.26R
CULPEPER*      CLEAR     19  18  93 CALM      30.28R
ORANGE*        CLEAR     23  21  93 CALM      30.29R
GORDONSVILLE*  FAIR      20  18  91 SW3       30.27S
WARRENTON*     FAIR      19  19 100 CALM      30.28R

$$

VAZ055>057-201200-
NORTH AND CENTRAL PIEDMONT

CITY           SKY/WX    TMP DP  RH WIND       PRES   REMARKS
FREDERICKSBRG* CLEAR     24  24  99 CALM      30.30R
STAFFORD*      CLEAR     20  20 100 CALM      30.33R

$$

NCZ024-NYZ072-PAZ021-071-VAZ022-071-201200-
OTHER REGIONAL OBSERVATIONS

CITY           SKY/WX    TMP DP  RH WIND       PRES   REMARKS
NEW YORK CITY  CLOUDY    31  19  61 VRB6      30.27R
PHILADELPHIA   CLOUDY    34  22  61 N10       30.26S WCI  26
PITTSBURGH     CLOUDY    28  20  71 CALM      30.27R
ROANOKE        CLOUDY    31  23  72 E3        30.25R
RICHMOND       CLOUDY    32  22  66 CALM      30.29R
RALEIGH        CLOUDY    35  26  69 E7        30.26R

$$

ANZ530>537-201200-
MARINE OBSERVATIONS

STATION/POSITION TIME  TEMP    WIND        PRES
                       AIR SEA DIR/SP/G
                 (UTC) (F)     (DEG/KT/KT) (MB)
THOMAS PT LIGHT  1100   31 40  320/  7/  8 1026.1R
BALT KEY BRIDGE  1100   32     320/ 10/ 12 1024.5F
COVE POINT       1100   34     360/ 12/ 15 1024.3F
LEWISETTA        1100   34 41  360/  6/  9 1024.8R
SOLOMONS ISLAND  1100      42                N/A

$$




USA.gov is the U.S. government's official web portal to all federal, state and local government web resources and services.